Time,TemperatureF,DewpointF,PressureIn,WindDirection,WindDirectionDegrees,WindSpeedMPH,WindSpeedGustMPH,Humidity,HourlyPrecipIn,Conditions,Clouds,dailyrainin,SoftwareType,DateUTC
2013-06-06 00:01:00,69.0,58.0,30.05,NNE,27,0.0,0.0,68,0.00,,BKN100,0.00,VWS V14.01,2013-06-06 04:01:00,
2013-06-06 00:05:00,68.8,58.2,30.05,NNE,27,0.0,1.0,69,0.00,,BKN100,0.00,VWS V14.01,2013-06-06 04:05:00,
2013-06-06 00:10:00,68.6,58.4,30.05,NNE,27,0.0,0.0,70,0.00,,BKN100,0.00,VWS V14.01,2013-06-06 04:10:00,
2013-06-06 00:15:00,68.4,58.2,30.05,NNE,27,0.0,0.0,70,0.00,,BKN100,0.00,VWS V14.01,2013-06-06 04:15:00,
2013-06-06 00:20:00,68.2,58.0,30.04,NNE,27,0.0,0.0,70,0.00,,BKN100,0.00,VWS V14.01,2013-06-06 04:20:00,
2013-06-06 00:25:00,68.0,58.3,30.04,NNE,27,0.0,0.0,71,0.00,,BKN100,0.00,VWS V14.01,2013-06-06 04:25:00,
2013-06-06 00:30:00,67.8,58.5,30.04,NNE,27,0.0,0.0,72,0.00,,BKN100,0.00,VWS V14.01,2013-06-06 04:30:00,
2013-06-06 00:35:00,67.5,58.2,30.04,NNE,27,0.0,0.0,72,0.00,,BKN100,0.00,VWS V14.01,2013-06-06 04:35:00,
2013-06-06 00:40:00,67.4,58.5,30.04,NNE,27,0.0,0.0,73,0.00,,BKN100,0.00,VWS V14.01,2013-06-06 04:40:00,
2013-06-06 00:45:00,67.2,58.3,30.04,NNE,27,0.0,0.0,73,0.00,,BKN100,0.00,VWS V14.01,2013-06-06 04:45:00,
2013-06-06 00:50:00,67.1,58.2,30.04,NNE,27,0.0,0.0,73,0.00,,BKN100,0.00,VWS V14.01,2013-06-06 04:50:00,
2013-06-06 00:55:00,67.1,58.2,30.03,NNE,27,0.0,0.0,73,0.00,,BKN100,0.00,VWS V14.01,2013-06-06 04:55:00,
2013-06-06 01:01:00,66.9,58.3,30.03,NNE,27,0.0,0.0,74,0.00,,BKN110,0.00,VWS V14.01,2013-06-06 05:01:00,
2013-06-06 01:05:00,66.8,58.3,30.03,NNE,27,0.0,0.0,74,0.00,,BKN110,0.00,VWS V14.01,2013-06-06 05:05:00,
2013-06-06 01:10:00,66.7,58.5,30.03,NNE,27,0.0,0.0,75,0.00,,BKN110,0.00,VWS V14.01,2013-06-06 05:10:00,
2013-06-06 01:15:00,66.6,58.8,30.03,NNE,27,0.0,0.0,76,0.00,,BKN110,0.00,VWS V14.01,2013-06-06 05:15:00,
2013-06-06 01:20:00,66.4,58.6,30.03,NNE,27,0.0,0.0,76,0.00,,BKN110,0.00,VWS V14.01,2013-06-06 05:20:00,
2013-06-06 01:25:00,66.4,58.6,30.02,NNE,27,0.0,0.0,76,0.00,,BKN110,0.00,VWS V14.01,2013-06-06 05:25:00,
2013-06-06 01:30:00,66.2,58.8,30.02,NNE,27,0.0,0.0,77,0.00,,BKN110,0.00,VWS V14.01,2013-06-06 05:30:00,
2013-06-06 01:35:00,66.2,58.8,30.02,NNE,27,0.0,0.0,77,0.00,,BKN110,0.00,VWS V14.01,2013-06-06 05:35:00,
2013-06-06 01:40:00,66.1,58.7,30.02,NNE,27,0.0,1.0,77,0.00,,BKN110,0.00,VWS V14.01,2013-06-06 05:40:00,
2013-06-06 01:45:00,66.1,59.0,30.02,NNE,27,0.0,0.0,78,0.00,,BKN110,0.00,VWS V14.01,2013-06-06 05:45:00,
2013-06-06 01:50:00,65.9,58.9,30.02,NNE,27,0.0,0.0,78,0.00,,BKN110,0.00,VWS V14.01,2013-06-06 05:50:00,
2013-06-06 01:55:00,65.8,59.1,30.02,NNE,27,0.0,0.0,79,0.00,,BKN110,0.00,VWS V14.01,2013-06-06 05:55:00,
2013-06-06 02:01:00,65.6,58.9,30.01,NNE,27,0.0,0.0,79,0.00,,BKN100,0.00,VWS V14.01,2013-06-06 06:01:00,
2013-06-06 02:10:00,65.5,59.2,30.01,NNE,27,0.0,0.0,80,0.00,,BKN100,0.00,VWS V14.01,2013-06-06 06:10:00,
2013-06-06 02:15:00,65.4,59.4,30.01,NNE,27,0.0,0.0,81,0.00,,BKN100,0.00,VWS V14.01,2013-06-06 06:15:00,
2013-06-06 02:20:00,65.3,59.3,30.01,NNE,27,0.0,0.0,81,0.00,,BKN100,0.00,VWS V14.01,2013-06-06 06:20:00,
2013-06-06 02:25:00,65.3,59.3,30.00,NNE,27,0.0,1.0,81,0.00,,BKN100,0.00,VWS V14.01,2013-06-06 06:25:00,
2013-06-06 02:30:00,65.3,59.3,30.00,NNE,27,0.0,1.0,81,0.00,,BKN100,0.00,VWS V14.01,2013-06-06 06:30:00,
2013-06-06 02:35:00,65.4,59.8,30.00,NNE,27,0.0,0.0,82,0.00,,BKN100,0.00,VWS V14.01,2013-06-06 06:35:00,
2013-06-06 02:40:00,65.3,59.7,30.00,NNE,27,0.0,0.0,82,0.00,,BKN100,0.00,VWS V14.01,2013-06-06 06:40:00,
2013-06-06 02:45:00,65.4,59.8,30.00,NNE,27,0.0,0.0,82,0.00,,BKN100,0.00,VWS V14.01,2013-06-06 06:45:00,
2013-06-06 02:50:00,65.5,59.9,30.00,NNE,27,0.0,0.0,82,0.00,,BKN100,0.00,VWS V14.01,2013-06-06 06:50:00,
2013-06-06 02:55:00,65.5,59.9,30.00,NNE,27,0.0,0.0,82,0.00,,BKN100,0.00,VWS V14.01,2013-06-06 06:55:00,
2013-06-06 03:01:00,65.6,60.0,30.00,NNE,27,0.0,1.0,82,0.00,,SCT080,0.00,VWS V14.01,2013-06-06 07:01:00,
2013-06-06 03:10:00,65.8,60.2,29.99,NNE,27,0.0,1.0,82,0.00,,SCT080,0.00,VWS V14.01,2013-06-06 07:10:00,
2013-06-06 03:15:00,65.9,60.3,29.99,NNE,27,0.0,1.0,82,0.00,,SCT080,0.00,VWS V14.01,2013-06-06 07:15:00,
2013-06-06 03:20:00,65.9,60.3,29.99,NNE,27,0.0,0.0,82,0.00,,SCT080,0.00,VWS V14.01,2013-06-06 07:20:00,
2013-06-06 03:25:00,66.0,60.3,29.99,NNE,27,0.0,0.0,82,0.00,,SCT080,0.00,VWS V14.01,2013-06-06 07:25:00,
2013-06-06 03:30:00,66.1,60.5,29.99,NNE,27,0.0,1.0,82,0.00,,SCT080,0.00,VWS V14.01,2013-06-06 07:30:00,
2013-06-06 03:35:00,66.1,60.5,29.99,NNE,27,0.0,0.0,82,0.00,,SCT080,0.00,VWS V14.01,2013-06-06 07:35:00,
2013-06-06 03:40:00,66.1,60.5,29.99,NNE,27,0.0,0.0,82,0.00,,SCT080,0.00,VWS V14.01,2013-06-06 07:40:00,
2013-06-06 03:45:00,66.2,60.5,29.99,NNE,27,0.0,1.0,82,0.00,,SCT080,0.00,VWS V14.01,2013-06-06 07:45:00,
2013-06-06 03:50:00,66.3,60.7,29.98,NNE,27,0.0,0.0,82,0.00,,SCT080,0.00,VWS V14.01,2013-06-06 07:50:00,
2013-06-06 03:55:00,66.3,60.7,29.98,NNE,27,0.0,0.0,82,0.00,,SCT080,0.00,VWS V14.01,2013-06-06 07:55:00,
2013-06-06 04:01:00,66.4,60.7,29.99,NNE,27,0.0,0.0,82,0.00,,SCT042,0.00,VWS V14.01,2013-06-06 08:01:00,
2013-06-06 04:10:00,66.5,60.8,29.99,SSE,157,0.0,0.0,82,0.00,,SCT042,0.00,VWS V14.01,2013-06-06 08:10:00,
2013-06-06 04:15:00,66.6,60.9,29.99,SSE,158,0.0,0.0,82,0.00,,SCT042,0.00,VWS V14.01,2013-06-06 08:15:00,
2013-06-06 04:20:00,66.6,60.9,29.98,SSE,158,0.0,0.0,82,0.00,,SCT042,0.00,VWS V14.01,2013-06-06 08:20:00,
2013-06-06 04:25:00,66.6,60.9,29.98,SSE,158,0.0,0.0,82,0.00,,SCT042,0.00,VWS V14.01,2013-06-06 08:25:00,
2013-06-06 04:30:00,66.6,61.3,29.98,SSE,158,0.0,0.0,83,0.00,,SCT042,0.00,VWS V14.01,2013-06-06 08:30:00,
2013-06-06 04:35:00,66.6,61.3,29.97,SSE,158,0.0,0.0,83,0.00,,SCT042,0.00,VWS V14.01,2013-06-06 08:35:00,
2013-06-06 04:40:00,66.5,61.2,29.97,SSE,158,0.0,0.0,83,0.00,,SCT042,0.00,VWS V14.01,2013-06-06 08:40:00,
2013-06-06 04:45:00,66.6,61.3,29.97,SSE,158,0.0,0.0,83,0.00,,SCT042,0.00,VWS V14.01,2013-06-06 08:45:00,
2013-06-06 04:50:00,66.5,61.2,29.97,SSE,158,0.0,0.0,83,0.00,,SCT042,0.00,VWS V14.01,2013-06-06 08:50:00,
2013-06-06 04:55:00,66.6,61.3,29.97,SSE,158,0.0,0.0,83,0.00,,SCT042,0.00,VWS V14.01,2013-06-06 08:55:00,
2013-06-06 05:00:00,66.6,61.3,29.97,SSE,158,0.0,0.0,83,0.00,,-RA,0.00,VWS V14.01,2013-06-06 09:00:00,
2013-06-06 05:05:00,66.7,61.4,29.97,SSE,158,0.0,0.0,83,0.00,,-RA,0.00,VWS V14.01,2013-06-06 09:05:00,
2013-06-06 05:10:00,66.7,61.4,29.96,SSE,158,0.0,0.0,83,0.00,,-RA,0.00,VWS V14.01,2013-06-06 09:10:00,
2013-06-06 05:15:00,66.6,61.6,29.96,SSE,158,0.0,0.0,84,0.00,,-RA,0.00,VWS V14.01,2013-06-06 09:15:00,
2013-06-06 05:20:00,66.6,61.6,29.96,SSE,158,0.0,0.0,84,0.00,,-RA,0.00,VWS V14.01,2013-06-06 09:20:00,
2013-06-06 05:25:00,66.6,61.6,29.96,SSE,158,0.0,0.0,84,0.00,,-RA,0.00,VWS V14.01,2013-06-06 09:25:00,
2013-06-06 05:30:00,66.6,61.6,29.96,SSE,157,0.0,0.0,84,0.00,,-RA,0.00,VWS V14.01,2013-06-06 09:30:00,
2013-06-06 05:35:00,66.6,62.0,29.96,SSE,158,0.0,0.0,85,0.00,,-RA,0.00,VWS V14.01,2013-06-06 09:35:00,
2013-06-06 05:40:00,66.6,62.0,29.96,SSE,158,0.0,0.0,85,0.00,,-RA,0.00,VWS V14.01,2013-06-06 09:40:00,
2013-06-06 05:45:00,66.6,62.0,29.96,SSE,158,0.0,0.0,85,0.00,,-RA,0.00,VWS V14.01,2013-06-06 09:45:00,
2013-06-06 05:50:00,66.6,62.0,29.96,SSE,158,0.0,0.0,85,0.00,,-RA,0.00,VWS V14.01,2013-06-06 09:50:00,
2013-06-06 05:55:00,66.7,62.0,29.96,SSE,158,0.0,0.0,85,0.00,,-RA,0.00,VWS V14.01,2013-06-06 09:55:00,
2013-06-06 06:01:00,66.7,62.0,29.95,SSE,158,0.0,0.0,85,0.00,,BKN090,0.00,VWS V14.01,2013-06-06 10:01:00,
2013-06-06 06:10:00,66.7,62.4,29.95,SSE,157,0.0,0.0,86,0.00,,BKN090,0.00,VWS V14.01,2013-06-06 10:10:00,
2013-06-06 06:15:00,66.7,62.4,29.95,SSE,157,0.0,0.0,86,0.00,,BKN090,0.00,VWS V14.01,2013-06-06 10:15:00,
2013-06-06 06:20:00,66.6,62.3,29.95,SSE,158,0.0,0.0,86,0.00,,BKN090,0.00,VWS V14.01,2013-06-06 10:20:00,
2013-06-06 06:25:00,66.7,62.4,29.95,SSE,158,0.0,0.0,86,0.00,,BKN090,0.00,VWS V14.01,2013-06-06 10:25:00,
2013-06-06 06:30:00,66.7,62.4,29.95,SSE,158,0.0,1.0,86,0.00,,BKN090,0.00,VWS V14.01,2013-06-06 10:30:00,
2013-06-06 06:35:00,66.7,62.4,29.95,SSE,158,0.0,1.0,86,0.00,,BKN090,0.00,VWS V14.01,2013-06-06 10:35:00,
2013-06-06 06:40:00,66.7,62.7,29.95,SSE,158,0.0,3.0,87,0.00,,BKN090,0.00,VWS V14.01,2013-06-06 10:40:00,
2013-06-06 06:45:00,66.7,62.7,29.95,SSE,158,0.0,0.0,87,0.00,,BKN090,0.00,VWS V14.01,2013-06-06 10:45:00,
2013-06-06 06:50:00,66.8,62.8,29.95,SSE,158,0.0,0.0,87,0.00,,BKN090,0.00,VWS V14.01,2013-06-06 10:50:00,
2013-06-06 06:55:00,66.8,62.8,29.95,SSE,158,0.0,0.0,87,0.00,,BKN090,0.00,VWS V14.01,2013-06-06 10:55:00,
2013-06-06 07:01:00,66.8,62.8,29.96,SSE,158,0.0,0.0,87,0.00,,BKN090,0.00,VWS V14.01,2013-06-06 11:01:00,
2013-06-06 07:10:00,66.9,62.9,29.96,SSE,157,1.0,2.0,87,0.00,,BKN090,0.00,VWS V14.01,2013-06-06 11:10:00,
2013-06-06 07:15:00,66.9,63.2,29.96,SSE,157,0.0,1.0,88,0.00,,BKN090,0.00,VWS V14.01,2013-06-06 11:15:00,
2013-06-06 07:20:00,67.0,63.3,29.96,SSE,157,0.0,1.0,88,0.00,,BKN090,0.00,VWS V14.01,2013-06-06 11:20:00,
2013-06-06 07:25:00,67.1,63.4,29.96,SSE,158,0.0,1.0,88,0.00,,BKN090,0.00,VWS V14.01,2013-06-06 11:25:00,
2013-06-06 07:30:00,67.2,63.5,29.96,SSE,157,0.0,0.0,88,0.00,,BKN090,0.00,VWS V14.01,2013-06-06 11:30:00,
2013-06-06 07:35:00,67.2,63.5,29.96,SSE,157,0.0,0.0,88,0.00,,BKN090,0.00,VWS V14.01,2013-06-06 11:35:00,
2013-06-06 07:40:00,67.4,63.7,29.96,SSE,157,0.0,0.0,88,0.00,,BKN090,0.00,VWS V14.01,2013-06-06 11:40:00,
2013-06-06 07:45:00,67.5,63.8,29.96,SSE,158,0.0,0.0,88,0.00,,BKN090,0.00,VWS V14.01,2013-06-06 11:45:00,
2013-06-06 07:50:00,67.6,63.9,29.96,SE,136,0.0,1.0,88,0.00,,BKN090,0.00,VWS V14.01,2013-06-06 11:50:00,
2013-06-06 07:55:00,67.7,64.0,29.96,SE,136,0.0,1.0,88,0.00,,BKN090,0.00,VWS V14.01,2013-06-06 11:55:00,
2013-06-06 08:01:00,67.7,64.0,29.96,NNE,30,0.0,1.0,88,0.00,,BKN120,0.00,VWS V14.01,2013-06-06 12:01:00,
2013-06-06 08:10:00,67.8,64.1,29.95,NNE,30,0.0,1.0,88,0.00,,BKN120,0.00,VWS V14.01,2013-06-06 12:10:00,
2013-06-06 08:15:00,67.9,64.2,29.95,NNE,30,0.0,1.0,88,0.00,,BKN120,0.00,VWS V14.01,2013-06-06 12:15:00,
2013-06-06 08:20:00,68.2,64.5,29.95,NNE,30,0.0,1.0,88,0.00,,BKN120,0.00,VWS V14.01,2013-06-06 12:20:00,
2013-06-06 08:25:00,68.4,64.7,29.96,NNE,30,0.0,1.0,88,0.00,,BKN120,0.00,VWS V14.01,2013-06-06 12:25:00,
2013-06-06 08:30:00,68.6,64.9,29.95,NNE,30,0.0,2.0,88,0.00,,BKN120,0.00,VWS V14.01,2013-06-06 12:30:00,
2013-06-06 08:35:00,68.8,65.1,29.95,NNE,30,1.0,2.0,88,0.00,,BKN120,0.00,VWS V14.01,2013-06-06 12:35:00,
2013-06-06 08:40:00,69.1,65.1,29.95,NNE,30,0.0,1.0,87,0.00,,BKN120,0.00,VWS V14.01,2013-06-06 12:40:00,
2013-06-06 08:45:00,69.4,65.4,29.96,ENE,72,0.0,1.0,87,0.00,,BKN120,0.00,VWS V14.01,2013-06-06 12:45:00,
2013-06-06 08:50:00,69.6,65.6,29.95,ENE,72,0.0,1.0,87,0.00,,BKN120,0.00,VWS V14.01,2013-06-06 12:50:00,
2013-06-06 08:55:00,69.8,65.4,29.95,NNE,32,1.0,1.0,86,0.00,,BKN120,0.00,VWS V14.01,2013-06-06 12:55:00,
2013-06-06 09:01:00,69.9,65.9,29.95,NE,35,0.0,1.0,87,0.00,,BKN150,0.00,VWS V14.01,2013-06-06 13:01:00,
2013-06-06 09:10:00,70.5,66.4,29.95,NE,35,0.0,1.0,87,0.00,,BKN150,0.00,VWS V14.01,2013-06-06 13:10:00,
2013-06-06 09:15:00,70.8,66.4,29.95,East,96,0.0,1.0,86,0.00,,BKN150,0.00,VWS V14.01,2013-06-06 13:15:00,
2013-06-06 09:20:00,71.1,66.7,29.95,North,11,0.0,2.0,86,0.00,,BKN150,0.00,VWS V14.01,2013-06-06 13:20:00,
2013-06-06 09:25:00,71.1,66.7,29.95,North,11,1.0,1.0,86,0.00,,BKN150,0.00,VWS V14.01,2013-06-06 13:25:00,
2013-06-06 09:30:00,71.2,66.8,29.95,North,11,0.0,1.0,86,0.00,,BKN150,0.00,VWS V14.01,2013-06-06 13:30:00,
2013-06-06 09:35:00,71.4,66.7,29.95,NNE,32,0.0,2.0,85,0.00,,BKN150,0.00,VWS V14.01,2013-06-06 13:35:00,
2013-06-06 09:40:00,71.5,67.1,29.95,ENE,61,0.0,1.0,86,0.00,,BKN150,0.00,VWS V14.01,2013-06-06 13:40:00,
2013-06-06 09:45:00,71.8,67.1,29.95,ENE,60,0.0,0.0,85,0.00,,BKN150,0.00,VWS V14.01,2013-06-06 13:45:00,
2013-06-06 09:50:00,71.9,67.2,29.95,NNE,30,0.0,2.0,85,0.00,,OVC150,0.00,VWS V14.01,2013-06-06 13:50:00,
2013-06-06 09:55:00,72.2,67.4,29.94,NE,39,0.0,2.0,85,0.00,,OVC150,0.00,VWS V14.01,2013-06-06 13:55:00,
2013-06-06 10:01:00,72.6,67.8,29.94,SE,145,1.0,1.0,85,0.00,,OVC120,0.00,VWS V14.01,2013-06-06 14:01:00,
2013-06-06 10:05:00,72.9,67.8,29.94,NE,52,0.0,5.0,84,0.00,,OVC120,0.00,VWS V14.01,2013-06-06 14:05:00,
2013-06-06 10:10:00,73.0,67.9,29.94,NE,51,1.0,1.0,84,0.00,,OVC120,0.00,VWS V14.01,2013-06-06 14:10:00,
2013-06-06 10:15:00,73.2,68.1,29.94,NNE,25,0.0,1.0,84,0.00,,OVC120,0.00,VWS V14.01,2013-06-06 14:15:00,
2013-06-06 10:20:00,73.4,68.3,29.94,West,263,2.0,2.0,84,0.00,,OVC120,0.00,VWS V14.01,2013-06-06 14:20:00,
2013-06-06 10:25:00,73.5,67.7,29.94,SSE,155,0.0,4.0,82,0.00,,OVC120,0.00,VWS V14.01,2013-06-06 14:25:00,
2013-06-06 10:30:00,73.5,67.7,29.94,NE,34,0.0,2.0,82,0.00,,OVC120,0.00,VWS V14.01,2013-06-06 14:30:00,
2013-06-06 10:35:00,73.5,68.0,29.94,ENE,70,0.0,1.0,83,0.00,,OVC120,0.00,VWS V14.01,2013-06-06 14:35:00,
2013-06-06 10:40:00,73.7,68.2,29.94,ESE,122,3.0,3.0,83,0.00,,OVC120,0.00,VWS V14.01,2013-06-06 14:40:00,
2013-06-06 10:45:00,73.8,68.0,29.94,NE,55,0.0,4.0,82,0.00,,OVC120,0.00,VWS V14.01,2013-06-06 14:45:00,
2013-06-06 10:50:00,73.9,68.1,29.94,NNE,27,1.0,2.0,82,0.00,,OVC120,0.00,VWS V14.01,2013-06-06 14:50:00,
2013-06-06 10:55:00,74.0,68.5,29.94,ESE,110,4.0,5.0,83,0.00,,OVC120,0.00,VWS V14.01,2013-06-06 14:55:00,
2013-06-06 11:01:00,74.1,68.3,29.94,ESE,112,0.0,4.0,82,0.00,,OVC065,0.00,VWS V14.01,2013-06-06 15:01:00,
2013-06-06 11:10:00,74.3,68.4,29.94,East,84,0.0,2.0,82,0.00,,OVC065,0.00,VWS V14.01,2013-06-06 15:10:00,
2013-06-06 11:15:00,74.4,68.6,29.94,ENE,69,0.0,1.0,82,0.00,,OVC065,0.00,VWS V14.01,2013-06-06 15:15:00,
2013-06-06 11:20:00,74.4,68.6,29.94,NNE,30,0.0,3.0,82,0.00,,OVC065,0.00,VWS V14.01,2013-06-06 15:20:00,
2013-06-06 11:25:00,74.4,68.6,29.94,ESE,112,0.0,2.0,82,0.00,,OVC065,0.00,VWS V14.01,2013-06-06 15:25:00,
2013-06-06 11:30:00,74.3,68.4,29.94,NNE,26,1.0,2.0,82,0.00,,OVC065,0.00,VWS V14.01,2013-06-06 15:30:00,
2013-06-06 11:36:00,74.2,68.4,29.94,NNE,25,0.0,2.0,82,0.00,,OVC065,0.00,VWS V14.01,2013-06-06 15:36:00,
2013-06-06 11:45:00,74.4,68.9,29.93,NNE,20,0.0,1.0,83,0.00,,OVC065,0.00,VWS V14.01,2013-06-06 15:45:00,
2013-06-06 11:50:00,74.5,69.0,29.93,NE,36,1.0,2.0,83,0.00,,OVC065,0.00,VWS V14.01,2013-06-06 15:50:00,
2013-06-06 11:55:00,74.6,68.8,29.93,North,352,0.0,5.0,82,0.00,,OVC065,0.00,VWS V14.01,2013-06-06 15:55:00,
2013-06-06 12:01:00,74.8,68.9,29.93,East,101,3.0,3.0,82,0.00,,OVC045,0.00,VWS V14.01,2013-06-06 16:01:00,
2013-06-06 12:10:00,75.1,69.2,29.93,NE,36,0.0,1.0,82,0.00,,OVC045,0.00,VWS V14.01,2013-06-06 16:10:00,
2013-06-06 12:15:00,75.0,69.1,29.93,ESE,115,0.0,5.0,82,0.00,,OVC045,0.00,VWS V14.01,2013-06-06 16:15:00,
2013-06-06 12:20:00,75.1,69.2,29.93,WSW,248,0.0,1.0,82,0.00,,OVC045,0.00,VWS V14.01,2013-06-06 16:20:00,
2013-06-06 12:25:00,75.0,69.5,29.92,ENE,61,0.0,4.0,83,0.00,,OVC045,0.00,VWS V14.01,2013-06-06 16:25:00,
2013-06-06 12:30:00,74.8,70.0,29.92,ENE,61,0.0,1.0,85,0.00,,OVC045,0.00,VWS V14.01,2013-06-06 16:30:00,
2013-06-06 12:35:00,74.6,70.1,29.92,East,80,0.0,2.0,86,0.00,,OVC045,0.00,VWS V14.01,2013-06-06 16:35:00,
2013-06-06 12:40:00,74.8,70.0,29.92,NE,41,0.0,1.0,85,0.00,,OVC045,0.00,VWS V14.01,2013-06-06 16:40:00,
2013-06-06 12:45:00,74.9,70.4,29.92,ENE,76,0.0,2.0,86,0.00,,OVC045,0.00,VWS V14.01,2013-06-06 16:45:00,
2013-06-06 12:50:00,75.1,70.3,29.91,NNE,25,1.0,4.0,85,0.00,,OVC045,0.00,VWS V14.01,2013-06-06 16:50:00,
2013-06-06 12:55:00,75.0,69.8,29.91,NNE,21,1.0,3.0,84,0.00,,OVC045,0.00,VWS V14.01,2013-06-06 16:55:00,
2013-06-06 13:00:00,75.0,70.2,29.91,NNE,21,1.0,1.0,85,0.00,,-RA,0.00,VWS V14.01,2013-06-06 17:00:00,
2013-06-06 13:05:00,75.1,70.3,29.90,NNE,29,1.0,2.0,85,0.00,,-RA,0.00,VWS V14.01,2013-06-06 17:05:00,
2013-06-06 13:10:00,74.9,70.4,29.90,NNE,29,0.0,2.0,86,0.00,,-RA,0.00,VWS V14.01,2013-06-06 17:10:00,
2013-06-06 13:15:00,74.9,70.4,29.90,NNE,23,1.0,1.0,86,0.00,,-RA,0.00,VWS V14.01,2013-06-06 17:15:00,
2013-06-06 13:20:00,74.9,70.8,29.90,NNE,23,0.0,1.0,87,0.00,,-RA,0.00,VWS V14.01,2013-06-06 17:20:00,
2013-06-06 13:25:00,74.9,70.8,29.89,NNE,24,0.0,1.0,87,0.00,,-RA,0.00,VWS V14.01,2013-06-06 17:25:00,
2013-06-06 13:30:00,75.0,71.2,29.89,NNE,24,0.0,1.0,88,0.00,,-RA,0.00,VWS V14.01,2013-06-06 17:30:00,
2013-06-06 13:35:00,74.9,71.1,29.89,NNE,24,0.0,1.0,88,0.00,,-RA,0.00,VWS V14.01,2013-06-06 17:35:00,
2013-06-06 13:40:00,74.7,71.2,29.89,NNE,26,0.0,1.0,89,0.05,,-RA,0.05,VWS V14.01,2013-06-06 17:40:00,
2013-06-06 13:45:00,74.4,71.3,29.89,ESE,109,0.0,1.0,90,0.08,,-RA,0.08,VWS V14.01,2013-06-06 17:45:00,
2013-06-06 13:50:00,74.1,71.0,29.89,ESE,119,0.0,1.0,90,0.10,,-RA,0.10,VWS V14.01,2013-06-06 17:50:00,
2013-06-06 13:55:00,73.7,70.9,29.90,ESE,108,0.0,4.0,91,0.21,,-RA,0.21,VWS V14.01,2013-06-06 17:55:00,
2013-06-06 14:01:00,73.1,70.6,29.89,NNE,20,0.0,2.0,92,0.29,,-RA,0.29,VWS V14.01,2013-06-06 18:01:00,
2013-06-06 14:10:00,72.6,70.8,29.89,NNE,21,0.0,1.0,94,0.54,,-RA,0.54,VWS V14.01,2013-06-06 18:10:00,
2013-06-06 14:15:00,72.4,70.6,29.88,NNE,20,0.0,1.0,94,0.63,,-RA,0.63,VWS V14.01,2013-06-06 18:15:00,
2013-06-06 14:20:00,72.2,70.4,29.88,NNE,21,0.0,1.0,94,0.69,,-RA,0.69,VWS V14.01,2013-06-06 18:20:00,
2013-06-06 14:25:00,72.1,70.3,29.88,NNE,20,0.0,1.0,94,0.76,,-RA,0.76,VWS V14.01,2013-06-06 18:25:00,
2013-06-06 14:30:00,72.0,70.5,29.88,SE,146,0.0,3.0,95,0.78,,-RA,0.78,VWS V14.01,2013-06-06 18:30:00,
2013-06-06 14:35:00,71.9,70.4,29.88,SW,221,0.0,2.0,95,0.79,,-RA,0.79,VWS V14.01,2013-06-06 18:35:00,
2013-06-06 14:40:00,71.9,70.4,29.88,ESE,122,0.0,5.0,95,0.79,,-RA,0.79,VWS V14.01,2013-06-06 18:40:00,
2013-06-06 14:45:00,72.1,70.6,29.87,East,98,0.0,3.0,95,0.74,,-RA,0.79,VWS V14.01,2013-06-06 18:45:00,
2013-06-06 14:50:00,72.4,71.2,29.87,East,101,0.0,1.0,96,0.71,,-RA,0.79,VWS V14.01,2013-06-06 18:50:00,
2013-06-06 14:55:00,72.7,71.5,29.87,ESE,112,0.0,2.0,96,0.69,,-RA,0.79,VWS V14.01,2013-06-06 18:55:00,
2013-06-06 15:01:00,73.2,72.0,29.87,SE,127,0.0,2.0,96,0.58,,-RA,0.79,VWS V14.01,2013-06-06 19:01:00,
2013-06-06 15:10:00,73.7,72.5,29.86,SW,224,2.0,2.0,96,0.40,,-RA,0.79,VWS V14.01,2013-06-06 19:10:00,
2013-06-06 15:15:00,73.9,72.4,29.86,ESE,113,0.0,3.0,95,0.25,,-RA,0.79,VWS V14.01,2013-06-06 19:15:00,
2013-06-06 15:20:00,73.9,72.4,29.86,SE,124,3.0,6.0,95,0.16,,-RA,0.79,VWS V14.01,2013-06-06 19:20:00,
2013-06-06 15:25:00,73.9,72.1,29.86,NE,44,0.0,3.0,94,0.10,,-RA,0.79,VWS V14.01,2013-06-06 19:25:00,
2013-06-06 15:30:00,73.9,72.1,29.85,West,263,0.0,1.0,94,0.03,,-RA,0.79,VWS V14.01,2013-06-06 19:30:00,
2013-06-06 15:35:00,73.9,72.1,29.85,NW,308,0.0,3.0,94,0.01,,-RA,0.79,VWS V14.01,2013-06-06 19:35:00,
2013-06-06 15:40:00,73.9,72.1,29.85,ESE,117,0.0,3.0,94,0.00,,-RA,0.79,VWS V14.01,2013-06-06 19:40:00,
2013-06-06 15:45:00,73.9,72.1,29.85,SE,139,1.0,3.0,94,0.00,,-RA,0.79,VWS V14.01,2013-06-06 19:45:00,
2013-06-06 15:50:00,74.0,72.2,29.85,NNE,32,0.0,2.0,94,0.00,,-RA,0.79,VWS V14.01,2013-06-06 19:50:00,
2013-06-06 15:55:00,74.0,72.2,29.85,ESE,123,0.0,3.0,94,0.00,,-RA,0.79,VWS V14.01,2013-06-06 19:55:00,
2013-06-06 16:00:00,74.0,71.8,29.85,SE,125,2.0,4.0,93,0.00,,-RA,0.79,VWS V14.01,2013-06-06 20:00:00,
2013-06-06 16:06:00,74.1,71.9,29.84,SE,127,2.0,8.0,93,0.00,,-RA,0.79,VWS V14.01,2013-06-06 20:06:00,
2013-06-06 16:15:00,74.3,72.5,29.84,ESE,121,0.0,4.0,94,0.00,,-RA,0.79,VWS V14.01,2013-06-06 20:15:00,
2013-06-06 16:20:00,74.4,72.6,29.84,ESE,110,1.0,3.0,94,0.00,,-RA,0.79,VWS V14.01,2013-06-06 20:20:00,
2013-06-06 16:25:00,74.6,72.4,29.84,SSE,165,0.0,3.0,93,0.00,,-RA,0.79,VWS V14.01,2013-06-06 20:25:00,
2013-06-06 16:30:00,74.8,72.6,29.84,ESE,103,0.0,3.0,93,0.00,,-RA,0.79,VWS V14.01,2013-06-06 20:30:00,
2013-06-06 16:35:00,74.8,72.6,29.84,ESE,117,0.0,2.0,93,0.00,,-RA,0.79,VWS V14.01,2013-06-06 20:35:00,
2013-06-06 16:40:00,74.7,72.9,29.84,ESE,119,1.0,2.0,94,0.00,,-RA,0.79,VWS V14.01,2013-06-06 20:40:00,
2013-06-06 16:45:00,74.7,72.6,29.84,East,79,1.0,6.0,93,0.00,,-RA,0.79,VWS V14.01,2013-06-06 20:45:00,
2013-06-06 16:50:00,74.6,72.1,29.84,SE,126,4.0,6.0,92,0.00,,-RA,0.79,VWS V14.01,2013-06-06 20:50:00,
2013-06-06 16:55:00,74.5,72.0,29.84,SSE,151,0.0,5.0,92,0.00,,-RA,0.79,VWS V14.01,2013-06-06 20:55:00,
2013-06-06 17:01:00,74.3,72.2,29.84,East,98,1.0,2.0,93,0.00,,BKN043,0.79,VWS V14.01,2013-06-06 21:01:00,
2013-06-06 17:10:00,74.1,71.9,29.84,NE,49,0.0,1.0,93,0.00,,BKN043,0.79,VWS V14.01,2013-06-06 21:10:00,
2013-06-06 17:15:00,74.2,72.1,29.83,SE,138,0.0,1.0,93,0.00,,BKN043,0.79,VWS V14.01,2013-06-06 21:15:00,
2013-06-06 17:20:00,74.2,72.1,29.83,SSE,158,0.0,2.0,93,0.00,,BKN043,0.79,VWS V14.01,2013-06-06 21:20:00,
2013-06-06 17:25:00,74.2,72.4,29.83,East,79,0.0,2.0,94,0.00,,BKN043,0.79,VWS V14.01,2013-06-06 21:25:00,
2013-06-06 17:30:00,74.2,72.1,29.83,ESE,122,1.0,5.0,93,0.00,,-RA,0.79,VWS V14.01,2013-06-06 21:30:00,
2013-06-06 17:35:00,74.2,72.1,29.83,ESE,118,1.0,4.0,93,0.01,,-RA,0.80,VWS V14.01,2013-06-06 21:35:00,
2013-06-06 17:40:00,74.0,72.2,29.83,ESE,105,0.0,2.0,94,0.01,,-RA,0.80,VWS V14.01,2013-06-06 21:40:00,
2013-06-06 17:45:00,73.9,72.1,29.83,ESE,113,1.0,2.0,94,0.02,,-RA,0.81,VWS V14.01,2013-06-06 21:45:00,
2013-06-06 17:50:00,73.9,72.1,29.83,ESE,117,2.0,3.0,94,0.02,,-RA,0.81,VWS V14.01,2013-06-06 21:50:00,
2013-06-06 17:55:00,73.9,72.1,29.83,ESE,119,0.0,4.0,94,0.03,,-RA,0.82,VWS V14.01,2013-06-06 21:55:00,
2013-06-06 18:01:00,73.9,72.4,29.83,ESE,114,1.0,2.0,95,0.03,,-RA,0.82,VWS V14.01,2013-06-06 22:01:00,
2013-06-06 18:10:00,73.7,71.9,29.83,ESE,113,5.0,7.0,94,0.03,,-RA,0.82,VWS V14.01,2013-06-06 22:10:00,
2013-06-06 18:15:00,73.7,71.9,29.82,WSW,238,0.0,4.0,94,0.04,,-RA,0.83,VWS V14.01,2013-06-06 22:15:00,
2013-06-06 18:20:00,73.6,72.1,29.82,ESE,123,0.0,3.0,95,0.05,,-RA,0.84,VWS V14.01,2013-06-06 22:20:00,
2013-06-06 18:25:00,73.5,72.0,29.82,SE,142,0.0,2.0,95,0.06,,-RA,0.85,VWS V14.01,2013-06-06 22:25:00,
2013-06-06 18:30:00,73.2,71.4,29.82,East,96,4.0,6.0,94,0.06,,-RA,0.85,VWS V14.01,2013-06-06 22:30:00,
2013-06-06 18:35:00,72.9,71.1,29.83,East,95,1.0,5.0,94,0.07,,-RA,0.86,VWS V14.01,2013-06-06 22:35:00,
2013-06-06 18:40:00,72.7,70.9,29.83,ESE,107,2.0,7.0,94,0.07,,-RA,0.87,VWS V14.01,2013-06-06 22:40:00,
2013-06-06 18:45:00,72.6,70.8,29.83,SSW,195,0.0,4.0,94,0.09,,-RA,0.89,VWS V14.01,2013-06-06 22:45:00,
2013-06-06 18:50:00,72.5,71.0,29.83,ESE,110,0.0,6.0,95,0.10,,-RA,0.91,VWS V14.01,2013-06-06 22:50:00,
2013-06-06 18:55:00,72.4,70.9,29.83,ESE,110,0.0,4.0,95,0.13,,-RA,0.94,VWS V14.01,2013-06-06 22:55:00,
2013-06-06 19:00:00,72.3,70.8,29.83,ESE,108,1.0,2.0,95,0.13,,BKN032,0.95,VWS V14.01,2013-06-06 23:00:00,
2013-06-06 19:05:00,72.3,71.1,29.83,ESE,108,0.0,1.0,96,0.14,,BKN032,0.96,VWS V14.01,2013-06-06 23:05:00,
2013-06-06 19:10:00,72.2,70.7,29.83,SE,137,1.0,3.0,95,0.14,,BKN032,0.96,VWS V14.01,2013-06-06 23:10:00,
2013-06-06 19:15:00,72.3,70.8,29.83,ESE,105,2.0,3.0,95,0.14,,BKN032,0.96,VWS V14.01,2013-06-06 23:15:00,
2013-06-06 19:20:00,72.4,70.9,29.83,East,99,5.0,5.0,95,0.13,,BKN032,0.96,VWS V14.01,2013-06-06 23:20:00,
2013-06-06 19:25:00,72.4,70.9,29.83,SE,134,0.0,5.0,95,0.12,,BKN032,0.96,VWS V14.01,2013-06-06 23:25:00,
2013-06-06 19:30:00,72.4,70.9,29.83,ESE,103,1.0,3.0,95,0.11,,BKN032,0.96,VWS V14.01,2013-06-06 23:30:00,
2013-06-06 19:35:00,72.4,70.9,29.83,SE,131,2.0,5.0,95,0.11,,BKN032,0.96,VWS V14.01,2013-06-06 23:35:00,
2013-06-06 19:40:00,72.4,70.9,29.83,ESE,113,2.0,4.0,95,0.10,,BKN032,0.96,VWS V14.01,2013-06-06 23:40:00,
2013-06-06 19:45:00,72.3,70.8,29.83,SSE,149,0.0,3.0,95,0.09,,BKN032,0.96,VWS V14.01,2013-06-06 23:45:00,
2013-06-06 19:50:00,72.3,71.1,29.83,ESE,113,1.0,2.0,96,0.07,,BKN032,0.96,VWS V14.01,2013-06-06 23:50:00,
2013-06-06 19:55:00,72.3,71.1,29.83,South,191,1.0,4.0,96,0.05,,BKN032,0.96,VWS V14.01,2013-06-06 23:55:00,
2013-06-06 20:01:00,72.3,71.1,29.83,East,89,2.0,5.0,96,0.02,,BKN045,0.96,VWS V14.01,2013-06-07 00:01:00,
2013-06-06 20:10:00,72.2,70.7,29.83,SSW,206,1.0,5.0,95,0.00,,BKN045,0.96,VWS V14.01,2013-06-07 00:10:00,
2013-06-06 20:15:00,72.2,70.7,29.84,ESE,103,1.0,6.0,95,0.00,,BKN045,0.96,VWS V14.01,2013-06-07 00:15:00,
2013-06-06 20:20:00,72.2,70.7,29.84,WSW,243,2.0,8.0,95,0.00,,BKN045,0.96,VWS V14.01,2013-06-07 00:20:00,
2013-06-06 20:25:00,72.1,70.6,29.84,ESE,117,4.0,7.0,95,0.00,,BKN045,0.96,VWS V14.01,2013-06-07 00:25:00,
2013-06-06 20:30:00,72.0,70.5,29.84,East,99,2.0,6.0,95,0.00,,BKN045,0.96,VWS V14.01,2013-06-07 00:30:00,
2013-06-06 20:35:00,71.9,70.1,29.84,East,94,1.0,10.0,94,0.00,,BKN045,0.96,VWS V14.01,2013-06-07 00:35:00,
2013-06-06 20:40:00,71.8,70.0,29.84,SW,222,0.0,4.0,94,0.00,,OVC020,0.96,VWS V14.01,2013-06-07 00:40:00,
2013-06-06 20:45:00,71.7,69.6,29.84,West,270,2.0,5.0,93,0.00,,OVC020,0.96,VWS V14.01,2013-06-07 00:45:00,
2013-06-06 20:50:00,71.6,69.5,29.84,SSW,198,2.0,6.0,93,0.00,,OVC020,0.96,VWS V14.01,2013-06-07 00:50:00,
2013-06-06 20:55:00,71.4,69.3,29.84,ESE,113,2.0,6.0,93,0.00,,OVC020,0.96,VWS V14.01,2013-06-07 00:55:00,
2013-06-06 21:00:00,71.3,69.5,29.84,SSW,203,0.0,4.0,94,0.00,,-RA,0.96,VWS V14.01,2013-06-07 01:00:00,
2013-06-06 21:05:00,71.1,69.3,29.84,SE,143,0.0,5.0,94,0.00,,-RA,0.96,VWS V14.01,2013-06-07 01:05:00,
2013-06-06 21:10:00,71.0,69.2,29.84,SW,224,1.0,3.0,94,0.01,,-RA,0.97,VWS V14.01,2013-06-07 01:10:00,
2013-06-06 21:15:00,70.8,69.0,29.84,SE,129,0.0,3.0,94,0.01,,-RA,0.97,VWS V14.01,2013-06-07 01:15:00,
2013-06-06 21:20:00,70.7,69.2,29.85,SSE,159,0.0,1.0,95,0.01,,-RA,0.97,VWS V14.01,2013-06-07 01:20:00,
2013-06-06 21:25:00,70.6,69.1,29.84,East,87,0.0,2.0,95,0.01,,-RA,0.97,VWS V14.01,2013-06-07 01:25:00,
2013-06-06 21:30:00,70.5,69.0,29.85,SSE,150,0.0,2.0,95,0.02,,-RA,0.98,VWS V14.01,2013-06-07 01:30:00,
2013-06-06 21:35:00,70.5,69.0,29.85,SSW,204,0.0,2.0,95,0.02,,-RA,0.98,VWS V14.01,2013-06-07 01:35:00,
2013-06-06 21:40:00,70.5,69.0,29.85,SSE,164,0.0,3.0,95,0.02,,-RA,0.98,VWS V14.01,2013-06-07 01:40:00,
2013-06-06 21:45:00,70.5,69.3,29.85,SE,146,0.0,1.0,96,0.02,,-RA,0.98,VWS V14.01,2013-06-07 01:45:00,
2013-06-06 21:50:00,70.5,69.3,29.85,SW,221,1.0,2.0,96,0.02,,-RA,0.98,VWS V14.01,2013-06-07 01:50:00,
2013-06-06 21:55:00,70.5,69.3,29.86,ESE,107,0.0,2.0,96,0.02,,-RA,0.98,VWS V14.01,2013-06-07 01:55:00,
2013-06-06 22:01:00,70.5,69.3,29.86,East,98,1.0,1.0,96,0.03,,-RA,0.99,VWS V14.01,2013-06-07 02:01:00,
2013-06-06 22:10:00,70.5,69.3,29.86,ESE,116,0.0,1.0,96,0.03,,-RA,0.99,VWS V14.01,2013-06-07 02:10:00,
2013-06-06 22:15:00,70.5,69.3,29.86,ESE,110,0.0,2.0,96,0.02,,-RA,0.99,VWS V14.01,2013-06-07 02:15:00,
2013-06-06 22:20:00,70.5,69.3,29.86,East,98,0.0,1.0,96,0.02,,-RA,0.99,VWS V14.01,2013-06-07 02:20:00,
2013-06-06 22:25:00,70.5,69.3,29.86,East,98,0.0,1.0,96,0.02,,-RA,0.99,VWS V14.01,2013-06-07 02:25:00,
2013-06-06 22:30:00,70.5,69.3,29.86,East,99,0.0,1.0,96,0.02,,-RA,0.99,VWS V14.01,2013-06-07 02:30:00,
2013-06-06 22:35:00,70.5,69.3,29.86,East,99,0.0,2.0,96,0.01,,-RA,0.99,VWS V14.01,2013-06-07 02:35:00,
2013-06-06 22:40:00,70.5,69.3,29.86,East,99,0.0,1.0,96,0.01,,-RA,0.99,VWS V14.01,2013-06-07 02:40:00,
2013-06-06 22:45:00,70.4,69.2,29.86,ESE,105,0.0,1.0,96,0.01,,-RA,0.99,VWS V14.01,2013-06-07 02:45:00,
2013-06-06 22:50:00,70.4,69.2,29.86,ESE,105,0.0,0.0,96,0.01,,-RA,0.99,VWS V14.01,2013-06-07 02:50:00,
2013-06-06 22:56:00,70.4,69.2,29.86,ESE,105,0.0,0.0,96,0.01,,-RA,0.99,VWS V14.01,2013-06-07 02:56:00,
2013-06-06 23:05:00,70.4,69.5,29.86,ESE,105,0.0,1.0,97,0.00,,OVC110,0.99,VWS V14.01,2013-06-07 03:05:00,
2013-06-06 23:10:00,70.4,69.5,29.86,ESE,105,0.0,0.0,97,0.00,,OVC110,0.99,VWS V14.01,2013-06-07 03:10:00,
2013-06-06 23:15:00,70.4,69.5,29.86,ESE,105,0.0,0.0,97,0.00,,OVC110,0.99,VWS V14.01,2013-06-07 03:15:00,
2013-06-06 23:20:00,70.3,69.4,29.85,ESE,105,0.0,0.0,97,0.00,,OVC110,0.99,VWS V14.01,2013-06-07 03:20:00,
2013-06-06 23:25:00,70.3,69.4,29.85,ESE,105,0.0,0.0,97,0.00,,OVC110,0.99,VWS V14.01,2013-06-07 03:25:00,
2013-06-06 23:30:00,70.3,69.4,29.85,ESE,105,0.0,0.0,97,0.00,,OVC110,0.99,VWS V14.01,2013-06-07 03:30:00,
2013-06-06 23:35:00,70.2,69.3,29.85,ESE,105,0.0,0.0,97,0.00,,OVC110,0.99,VWS V14.01,2013-06-07 03:35:00,
2013-06-06 23:40:00,70.2,69.3,29.85,ESE,105,0.0,0.0,97,0.00,,OVC110,0.99,VWS V14.01,2013-06-07 03:40:00,
2013-06-06 23:45:00,70.2,69.3,29.85,ESE,105,0.0,0.0,97,0.00,,OVC110,0.99,VWS V14.01,2013-06-07 03:45:00,
2013-06-06 23:50:00,70.2,69.3,29.85,ESE,105,0.0,0.0,97,0.00,,OVC110,0.99,VWS V14.01,2013-06-07 03:50:00,
2013-06-06 23:55:00,70.2,69.3,29.85,ESE,105,0.0,1.0,97,0.00,,OVC110,0.99,VWS V14.01,2013-06-07 03:55:00,